[[{"header":{"parameterUnit":"m.s-1","parameterCategory":1,"la1":30.2991,"la2":30.254,"lo1":-89.0895,"lo2":-89.0444,"dy":0.0017,"dx":0.0017,"nx":28,"ny":28,"refTime":"2023-10-05T03:00:00:Z","depth":0,"parameterNumber":2,"parameterNumberName":"U-component_of_WINDS"},"data":[0,0,0,0,0,0,0,0,0,0,0,0,0,0,0,0,0,0,0,0,0,0,0,0,0,0,0,0,0,0,0,0,0,0,0,0,0,0,0,0,0,0,0,0,0,0,0,0,0,0,0,0,0,0,0,0,0,0,0.6188,0.6187,0,0.6105,0.6104,0.6103,0.6042,0.6042,0.6041,0.6041,0.5955,0.5953,0.5951,0,0,0,0,0,0,0,0,0,0,0,0,0,0.6291,0.629,0.6188,0.6187,0.6186,0.6105,0.6104,0.6103,0.6042,0.6042,0.6041,0.604,0.5955,0.5953,0.5951,0,0,0,0,0,0,0,0,0,0,0,0,0,0.6231,0.6289,0.6188,0.6146,0.6141,0.6105,0.6104,0.6102,0.6042,0.6042,0.6041,0.604,0.5956,0.5954,0.5951,0.595,0,0,0.5943,0.5941,0,0,0,0,0,0,0,0,0.6235,0.6227,0.6153,0.6149,0.6143,0.6083,0.6109,0.6051,0.6043,0.608,0.6041,0.604,0.5998,0.5992,0.5978,0.5946,0.5942,0.5942,0.5941,0.594,0.5939,0,0,0,0,0,0,0,0.6239,0.6231,0.6155,0.6152,0.6146,0.613,0.6121,0.6098,0.6044,0.6076,0.6072,0.6063,0.5995,0.5981,0.5976,0.5941,0.5942,0.594,0.5938,0.5937,0.5901,0.5902,0,0,0,0,0,0,0.625,0.6234,0.6157,0.6152,0.6188,0.6129,0.6118,0.6103,0.6044,0.6035,0.6064,0.606,0.5986,0.5979,0.5972,0.5965,0.594,0.5937,0.5936,0.5901,0.5901,0.5902,0,0,0,0,0,0,0.6252,0.6244,0.6161,0.6192,0.618,0.6128,0.6111,0.6102,0.6087,0.6035,0.6025,0.6059,0.5985,0.5976,0.5955,0.5962,0.5936,0.5933,0.59,0.5901,0.5902,0.5953,0,0,0,0,0,0,0.6256,0.6245,0.6245,0.6193,0.6179,0.6146,0.6112,0.6101,0.6083,0.6078,0.6028,0.6018,0.5984,0.596,0.5953,0.5957,0.5931,0.5899,0.59,0.5901,0.595,0.5956,0.596,0,0,0,0,0,0.6259,0.6263,0.6245,0.6236,0.6178,0.6147,0.6139,0.6099,0.6084,0.6082,0.6048,0.602,0.5962,0.5958,0.595,0.5954,0.5898,0.59,0.5901,0.5948,0.5955,0.596,0,0,0,0,0,0,0.6317,0.6255,0.6235,0.6221,0.619,0.6137,0.6134,0.6107,0.6079,0.6075,0.6027,0.6016,0.6,0.5975,0.5971,0.5948,0.5927,0.5927,0.5965,0.5971,0.5975,0.5981,0.5929,0,0,0,0,0,0.6328,0.6308,0.6255,0.6249,0.6234,0.6187,0.6172,0.6144,0.6109,0.6095,0.6059,0.6026,0.6,0.5984,0.5958,0.5947,0.5934,0.5945,0.595,0.5954,0.5954,0.5944,0.5948,0.5907,0.5907,0.5907,0,0,0.6351,0.6314,0.6305,0.6259,0.6231,0.6211,0.6176,0.6157,0.6141,0.6092,0.607,0.6043,0.6002,0.5986,0.5977,0.5964,0.5963,0.5956,0.596,0.5957,0.5946,0.595,0.5953,0.5908,0.5908,0.5908,0,0,0.6381,0.6353,0.6343,0.6315,0.6274,0.6242,0.624,0.619,0.617,0.6147,0.6109,0.609,0.6047,0.6019,0.5999,0.6018,0.599,0.6011,0.6035,0.6025,0.6029,0.6031,0.6036,0.6038,0.6011,0.6011,0.6011,0,0.6414,0.6383,0.6341,0.6323,0.6303,0.6258,0.6247,0.6223,0.6174,0.6161,0.6148,0.6092,0.6062,0.6037,0.6041,0.6028,0.6022,0.6015,0.6032,0.6034,0.6036,0.6039,0.6041,0.6014,0.6013,0.6013,0.6013,0,0.6425,0.6404,0.6401,0.6355,0.6334,0.632,0.6275,0.626,0.6233,0.6203,0.6179,0.6141,0.6105,0.6097,0.6072,0.6068,0.6061,0.6041,0.6018,0.6043,0.6045,0.6047,0.6017,0.6017,0.6016,0.6015,0,0,0.6489,0.6419,0.6419,0.6396,0.6346,0.6329,0.6312,0.6277,0.6263,0.6231,0.6215,0.6179,0.6159,0.6136,0.6107,0.6099,0.6113,0.6079,0.6077,0.6085,0.6105,0.612,0.6122,0.6095,0.6095,0.6096,0.6108,0,0.651,0.6478,0.6439,0.6419,0.6398,0.6354,0.6339,0.6306,0.6277,0.6254,0.6222,0.6196,0.6173,0.6159,0.6149,0.6114,0.6117,0.6113,0.6078,0.6077,0.6088,0.6124,0.6139,0.6153,0.6109,0.6109,0.6109,0,0.6531,0.65,0.6479,0.6429,0.6418,0.6406,0.6369,0.6348,0.6309,0.6288,0.6263,0.6231,0.621,0.619,0.6159,0.6157,0.614,0.6121,0.612,0.6114,0.6094,0.6117,0.6156,0.6158,0.6111,0.611,0.611,0,0.6577,0.6531,0.6511,0.6494,0.6436,0.6427,0.6403,0.6363,0.6344,0.6312,0.6299,0.6265,0.6246,0.622,0.6179,0.6169,0.6152,0.6129,0.6132,0.6133,0.6129,0.613,0.6165,0.6122,0.6122,0.6122,0.6122,0,0.6604,0.6592,0.6531,0.6519,0.6503,0.6458,0.6444,0.6415,0.638,0.6361,0.6322,0.6304,0.6252,0.6228,0.6196,0.6174,0.6166,0.6148,0.6139,0.615,0.6152,0.6137,0.6135,0.6122,0.6122,0.6122,0.6122,0,0.6652,0.6612,0.6587,0.6534,0.652,0.6511,0.6465,0.645,0.6419,0.6395,0.6386,0.6336,0.6306,0.6263,0.622,0.6198,0.6179,0.6167,0.6193,0.6187,0.6192,0.6191,0.6217,0.6218,0.6176,0.6177,0.6177,0,0.6671,0.6661,0.6606,0.659,0.6567,0.6542,0.6522,0.6477,0.6458,0.6412,0.6403,0.6369,0.634,0.6293,0.6252,0.6218,0.6203,0.6215,0.6198,0.6209,0.6201,0.6201,0.6199,0.6218,0.6219,0.622,0.622,0,0.6709,0.6689,0.6661,0.6627,0.6604,0.6574,0.6543,0.6532,0.648,0.646,0.6428,0.6405,0.636,0.6327,0.6287,0.626,0.6231,0.6226,0.6224,0.6235,0.6249,0.6239,0.6202,0.6225,0.6225,0.6224,0.6224,0.6224,0.6741,0.6729,0.6688,0.6659,0.663,0.6602,0.6585,0.6551,0.6524,0.6484,0.6459,0.6428,0.6388,0.6331,0.6306,0.628,0.6268,0.6267,0.6266,0.6266,0.6269,0.6255,0.6273,0.6273,0.6273,0.6273,0.6272,0,0.6775,0.6746,0.672,0.6676,0.6653,0.6628,0.6591,0.6573,0.6546,0.6511,0.6483,0.6445,0.6412,0.6369,0.6333,0.632,0.6306,0.6312,0.6311,0.6305,0.6283,0.6287,0.6324,0.6324,0.6324,0.6324,0.6324,0.6324,0.6789,0.6767,0.6742,0.6704,0.6675,0.6645,0.6626,0.6598,0.657,0.653,0.6502,0.6474,0.6435,0.6396,0.6364,0.6351,0.6339,0.6349,0.6333,0.6312,0.6307,0.6303,0.6306,0.6347,0.6347,0.6358,0.6358,0.6358]},{"header":{"parameterUnit":"m.s-1","parameterCategory":1,"la1":30.2991,"la2":30.254,"lo1":-89.0895,"lo2":-89.0444,"dy":0.0017,"dx":0.0017,"nx":28,"ny":28,"refTime":"2023-10-05T03:00:00:Z","depth":0,"parameterNumber":3,"parameterNumberName":"V-component_of_WINDS"},"data":[0,0,0,0,0,0,0,0,0,0,0,0,0,0,0,0,0,0,0,0,0,0,0,0,0,0,0,0,0,0,0,0,0,0,0,0,0,0,0,0,0,0,0,0,0,0,0,0,0,0,0,0,0,0,0,0,0,0,3.8881,3.888,0,3.8808,3.8808,3.8807,3.8701,3.8699,3.8697,3.8696,3.862,3.862,3.862,0,0,0,0,0,0,0,0,0,0,0,0,0,3.8927,3.8927,3.8881,3.888,3.8879,3.8809,3.8808,3.8807,3.8701,3.8699,3.8697,3.8695,3.862,3.862,3.862,0,0,0,0,0,0,0,0,0,0,0,0,0,3.8886,3.8927,3.8881,3.8818,3.8812,3.8809,3.8808,3.8806,3.8702,3.8699,3.8696,3.8694,3.862,3.862,3.862,3.8672,0,0,3.8618,3.8618,0,0,0,0,0,0,0,0,3.8889,3.8885,3.8828,3.8823,3.8815,3.8761,3.8796,3.8761,3.8703,3.8744,3.8696,3.8692,3.8669,3.8665,3.8657,3.8668,3.8665,3.8618,3.8618,3.8618,3.8617,0,0,0,0,0,0,0,3.8892,3.8887,3.8852,3.8828,3.882,3.8793,3.8784,3.8789,3.8723,3.874,3.8732,3.8725,3.8665,3.8658,3.8654,3.8664,3.8618,3.8618,3.8617,3.8617,3.8714,3.8716,0,0,0,0,0,0,3.8904,3.889,3.8854,3.885,3.8846,3.8795,3.8785,3.8781,3.8722,3.8711,3.8727,3.872,3.866,3.8655,3.8651,3.8708,3.8618,3.8617,3.8617,3.8711,3.8714,3.8717,0,0,0,0,0,0,3.8906,3.8902,3.8857,3.8868,3.886,3.8797,3.8794,3.8781,3.8774,3.8713,3.87,3.8732,3.8657,3.8652,3.8667,3.8704,3.8617,3.8617,3.8707,3.8712,3.8716,3.8822,0,0,0,0,0,0,3.8907,3.8903,3.8922,3.8869,3.886,3.8875,3.8796,3.8782,3.8773,3.8763,3.8714,3.8703,3.8655,3.8669,3.8667,3.8702,3.8616,3.8704,3.8709,3.8714,3.8815,3.8829,3.8842,0,0,0,0,0,3.8909,3.8955,3.8924,3.892,3.8883,3.8878,3.8872,3.8816,3.8777,3.8795,3.8756,3.8705,3.8701,3.8671,3.8668,3.8703,3.8701,3.8708,3.8714,3.8809,3.8827,3.8841,0,0,0,0,0,0,3.9014,3.8947,3.8912,3.8942,3.8916,3.886,3.8882,3.8837,3.8822,3.8813,3.8744,3.8733,3.8757,3.8732,3.87,3.875,3.8693,3.8699,3.8766,3.8782,3.8795,3.8801,3.8616,0,0,0,0,0,3.904,3.9042,3.8983,3.9015,3.9004,3.8946,3.8941,3.89,3.8871,3.8859,3.8821,3.8795,3.8787,3.8783,3.8773,3.8811,3.8798,3.8834,3.8847,3.8859,3.8864,3.8882,3.8897,3.8738,3.8738,3.8738,0,0,3.9095,3.9059,3.9064,3.9035,3.9011,3.9013,3.8937,3.8943,3.8944,3.886,3.8872,3.8844,3.8809,3.8836,3.8846,3.8815,3.8906,3.8867,3.8876,3.8876,3.889,3.8905,3.8918,3.8742,3.8742,3.8741,0,0,3.9196,3.9169,3.9192,3.9169,3.9133,3.9094,3.91,3.9051,3.9029,3.904,3.8977,3.8977,3.8966,3.8943,3.8931,3.9024,3.8976,3.9023,3.9092,3.911,3.9123,3.9133,3.9166,3.9178,3.9029,3.9029,3.9029,0,3.9268,3.9269,3.921,3.922,3.9209,3.9134,3.9157,3.9138,3.91,3.9094,3.9061,3.9045,3.9017,3.9037,3.906,3.9052,3.9056,3.9027,3.9126,3.9136,3.9145,3.9175,3.9188,3.9035,3.9034,3.9034,3.9033,0,3.936,3.9362,3.9385,3.9352,3.9344,3.936,3.9303,3.9302,3.9262,3.9227,3.9239,3.9202,3.9183,3.9185,3.9146,3.92,3.9182,3.9139,3.9079,3.9167,3.9194,3.9205,3.9044,3.9041,3.904,3.9038,0,0,3.9523,3.9457,3.9466,3.945,3.9405,3.9405,3.9419,3.94,3.9401,3.9378,3.9386,3.9379,3.9338,3.9324,3.9282,3.9298,3.9374,3.9252,3.925,3.9275,3.943,3.9462,3.9477,3.9342,3.9344,3.9345,3.9432,0,3.9614,3.9633,3.958,3.9612,3.9613,3.9542,3.9554,3.9527,3.9495,3.949,3.9454,3.9449,3.9397,3.9388,3.94,3.9362,3.9403,3.9355,3.9348,3.9349,3.9358,3.9491,3.9525,3.9609,3.9443,3.9444,3.9446,0,3.9722,3.9705,3.9738,3.9691,3.969,3.9701,3.968,3.9677,3.9646,3.9621,3.9606,3.9557,3.9566,3.9511,3.9522,3.949,3.9484,3.9465,3.9467,3.9463,3.9402,3.949,3.9634,3.9647,3.9462,3.9461,3.9459,0,3.9837,3.9822,3.984,3.9828,3.9775,3.9784,3.9762,3.9728,3.9721,3.9702,3.9697,3.968,3.967,3.9658,3.9606,3.957,3.9623,3.9563,3.9602,3.9603,3.9615,3.9615,3.976,3.9614,3.9614,3.9613,3.9613,0,3.9943,3.9966,3.989,3.9901,3.9924,3.9863,3.9888,3.9859,3.9829,3.9832,3.977,3.9775,3.9706,3.9703,3.9662,3.9677,3.9674,3.9653,3.9642,3.9658,3.9661,3.9653,3.9645,3.9617,3.9616,3.9615,3.9615,0,4.0074,4.0025,4.0039,3.9988,3.9976,3.9995,3.995,3.9958,3.9922,3.9927,3.9924,3.9867,3.986,3.9807,3.9788,3.9761,3.9791,3.9769,3.9802,3.9794,3.9835,3.9832,3.9979,3.9995,3.984,3.9842,3.9843,0,4.0145,4.0161,4.0111,4.0109,4.0091,4.0088,4.0081,4.0022,4.0016,3.9982,3.9993,3.9981,3.9969,3.9961,3.9917,3.9902,3.9878,3.9931,3.9875,3.9891,3.9878,3.9877,3.9878,3.9943,3.9945,3.9946,3.9947,0,4.0275,4.025,4.0242,4.0225,4.0218,4.0202,4.0182,4.0184,4.0118,4.0115,4.0107,4.0098,4.0079,4.0067,4.0045,4.0021,3.9974,3.9966,3.9973,3.999,4.0008,3.9998,3.9833,3.9962,3.9961,3.996,3.9959,3.9958,4.0378,4.0388,4.0355,4.0348,4.0327,4.031,4.0314,4.0279,4.0272,4.0252,4.0217,4.0215,4.0183,4.0148,4.0129,4.0125,4.0097,4.0109,4.0112,4.0115,4.0124,4.001,4.0121,4.012,4.012,4.0119,4.0119,0,4.0504,4.048,4.0473,4.0448,4.0442,4.0399,4.0374,4.0372,4.0371,4.0345,4.0334,4.0326,4.0315,4.0271,4.0255,4.026,4.0238,4.0258,4.0256,4.0252,4.015,4.0144,4.0276,4.0276,4.0276,4.0276,4.0276,4.0276,4.0569,4.0585,4.0556,4.056,4.0535,4.0533,4.0523,4.0506,4.0486,4.0479,4.047,4.0441,4.0408,4.039,4.0377,4.0364,4.0361,4.0388,4.0368,4.0274,4.0259,4.0244,4.0239,4.0388,4.0389,4.047,4.0471,4.0471]}]]